Location: Göttingen
(51.5413°N, 9.9158°E)
Time: 04:28:59
(UTC+02:00)

Envisat - Pass Details

Date: 22 January 2022
Orbit: 764 x 765 km, 98.2° (Epoch: 28 May)

Event Time Altitude Azimuth Distance (km) Brightness Sun altitude
Rises 04:26:41 0° 22° (NNE) 3,243 6.6 -34.6°
Reaches altitude 10° 04:29:18 10° 33° (NNE) 2,312 5.9 -34.2°
Maximum altitude 04:33:43 29° 93° (E) 1,381 4.8 -33.5°
Drops below altitude 10° 04:38:05 10° 153° (SSE) 2,297 5.6 -32.9°
Sets 04:40:40 0° 165° (SSE) 3,218 6.3 -32.5°
